Terminal Aerodrome Forecast
Issued by NWS

Home | Current Version | Previous Version | Text Only | Print | Product List | Glossary On
Versions: 1 2 3 4 5 6 7 8 9 10 11 12 13 14
000
FTUS45 KTFX 281100
TAFGTF
TAF
KGTF 281130Z 2812/2912 21010KT P6SM SCT080 BKN120
     FM281500 22020G30KT P6SM SCT050 BKN070
     FM281800 27030G40KT P6SM BKN100
     FM290500 22010KT P6SM BKN250=

USA.gov is the U.S. government's official web portal to all federal, state and local government web resources and services.